GFSMA_250_spd_168.txt.gz
Wind_Speed
50 49 49 51 52 51 52 52 55 56 58 58 59 60 63 65 63 63 65 65 70 72 70 70 66 64 67 67 64 64 58 61 57 57 56 55 51 48 48 46 45 43 37
46 48 54 54 54 54 53 55 56 59 60 62 63 63 62 61 62 62 60 58 59 59 62 61 62 62 63 58 61 57 57 58 62 62 61 60 59 53 51 49 49 45 42
47 50 54 55 54 54 56 57 59 60 62 58 62 67 64 66 65 61 62 62 69 70 69 62 60 60 62 63 57 56 56 59 64 66 65 67 65 61 59 55 52 55 51
51 54 56 56 57 55 56 57 57 57 62 65 60 65 68 67 65 61 64 66 71 75 73 72 63 60 56 56 60 64 59 55 58 62 65 71 73 68 66 61 59 58 59
51 54 57 55 56 58 57 64 66 65 66 67 72 72 73 70 66 66 67 72 77 79 79 80 71 67 66 63 57 63 65 63 62 64 67 70 78 77 72 70 67 65 63
52 52 56 61 64 65 65 70 72 70 69 71 76 78 77 78 76 74 76 79 80 81 78 77 79 71 73 69 65 64 68 68 69 68 66 73 76 84 82 78 76 74 69
59 61 64 64 66 67 68 69 71 79 84 86 85 84 82 82 82 81 83 85 87 83 82 84 83 83 81 75 73 69 69 73 73 77 76 74 79 84 90 88 84 82 80
63 67 68 69 71 73 76 77 81 81 85 85 85 85 87 90 88 90 93 90 93 87 89 87 88 89 86 82 80 77 76 78 79 82 81 85 82 84 93 96 92 90 88
67 69 72 75 78 79 80 80 82 85 88 90 88 89 96 95 93 95 97 100 99 98 98 98 96 92 86 78 75 77 82 82 83 87 87 89 93 91 91 99 103 98 95
73 73 76 79 85 85 85 87 87 89 88 88 90 92 94 100 102 105 104 99 98 97 96 98 95 90 85 81 80 80 79 81 85 89 94 95 96 96 96 101 107 106 103
73 80 84 85 87 88 90 92 92 93 91 93 92 98 100 107 112 111 112 106 106 103 96 96 97 88 88 82 81 80 79 81 83 88 93 95 100 102 102 101 107 111 110
79 81 84 87 91 94 95 98 99 98 104 105 109 107 112 115 117 114 114 114 105 100 101 99 95 89 89 88 87 87 82 81 82 85 91 101 99 107 108 107 106 111 115
85 88 89 93 95 94 96 99 103 107 109 106 107 111 112 117 119 115 111 108 111 108 104 98 92 90 93 96 98 87 78 72 74 79 88 98 106 112 113 111 111 112 116
85 93 98 100 100 102 100 97 99 107 110 115 117 116 116 121 116 114 109 116 108 104 99 95 93 93 92 92 89 79 71 71 72 75 81 86 93 109 113 116 114 115 120
97 94 94 95 98 100 104 109 110 111 112 114 118 121 126 114 116 115 112 106 101 101 98 93 91 91 91 88 80 73 70 65 64 68 74 79 85 90 107 117 115 115 116
98 100 105 107 107 109 106 110 119 124 118 117 118 119 116 116 116 107 100 98 99 96 91 90 87 87 83 79 71 66 62 61 60 63 67 76 83 86 93 101 112 112 114
106 106 108 110 113 116 119 124 127 124 118 120 117 112 115 110 103 101 98 94 92 87 87 87 85 81 76 71 66 62 61 58 57 59 63 69 77 83 87 91 95 101 108
108 113 111 120 124 125 117 119 121 123 118 118 110 105 104 99 98 98 97 90 84 81 82 83 80 75 70 64 60 58 58 57 55 56 58 62 70 77 83 86 89 92 99
116 120 128 124 118 124 126 122 116 111 108 104 97 97 95 97 98 95 90 84 79 75 75 75 71 66 61 58 54 54 53 52 52 52 54 57 64 71 77 81 84 85 89
125 118 121 126 131 122 114 107 105 100 97 97 98 96 96 95 94 89 84 73 68 67 67 64 62 57 55 54 51 50 49 48 49 49 52 54 59 66 71 75 78 81 83
126 120 116 114 113 110 107 104 101 100 100 96 91 93 92 90 87 82 71 64 62 62 59 58 56 51 52 51 50 47 46 44 45 48 51 52 55 63 67 71 75 79 81
114 114 107 101 102 104 104 102 101 97 94 92 89 88 84 80 78 68 66 63 60 58 56 54 50 50 50 47 44 44 44 42 43 45 48 51 52 57 65 69 72 75 78
103 100 97 95 94 96 99 98 97 93 93 87 85 81 79 75 71 67 64 59 57 54 52 50 47 48 48 45 41 39 40 39 41 43 45 50 50 52 58 66 71 73 76
90 90 91 92 90 90 93 94 92 90 86 84 81 78 76 73 68 65 60 56 54 51 49 45 46 46 44 42 41 38 36 36 38 39 42 48 49 48 54 59 66 71 73
85 82 86 84 84 87 87 90 90 85 83 79 74 72 70 67 64 60 57 54 52 48 46 42 44 43 42 41 38 35 33 33 35 36 39 43 45 45 49 54 59 66 71
76 77 79 78 76 80 80 82 79 77 76 73 71 69 65 62 58 56 53 50 49 46 42 40 41 39 40 39 36 32 29 30 32 34 36 38 40 42 45 50 54 60 65

GFSMA_250_spd_171.txt.gz
Wind_Speed
45 45 44 44 44 45 45 47 49 49 49 50 50 52 53 56 59 59 57 59 61 63 66 65 60 59 56 53 55 54 53 46 50 57 56 57 52 52 51 51 47 43 46
41 44 46 45 44 45 49 50 50 50 49 52 54 55 56 56 55 57 62 60 65 63 63 63 60 59 57 57 61 61 59 60 51 46 56 57 60 58 54 57 54 46 47
43 44 45 47 48 50 52 51 52 54 53 56 56 51 55 61 56 61 63 68 69 66 64 63 61 62 63 63 65 66 66 62 62 61 52 59 63 64 64 61 61 58 51
44 46 48 50 51 52 53 53 54 55 55 58 60 61 63 64 65 67 70 69 70 67 66 68 69 67 68 68 72 72 72 72 66 62 63 60 61 67 69 65 66 65 60
48 49 50 51 54 55 57 57 55 57 59 59 61 62 66 66 71 72 71 69 71 70 71 72 75 73 75 76 77 78 78 77 78 73 73 71 66 68 76 76 74 73 70
50 49 49 54 56 56 55 59 64 65 66 66 67 70 72 76 70 70 70 76 73 68 73 78 78 80 83 84 84 86 82 80 80 80 76 78 77 70 72 82 79 81 76
53 49 54 55 57 64 69 66 68 70 69 72 75 75 77 76 75 72 77 73 71 72 79 78 79 84 89 95 92 89 90 84 84 87 89 79 80 79 76 79 86 87 85
56 56 57 60 61 65 67 70 72 74 74 76 78 80 81 82 82 82 81 80 80 83 83 92 91 93 93 99 100 94 95 95 91 90 86 85 84 83 83 83 88 90 95
53 56 59 62 67 67 67 68 71 74 80 83 82 86 89 87 88 89 88 89 87 98 97 94 100 104 104 108 103 96 94 96 96 94 90 86 85 88 90 87 86 93 99
62 62 61 67 68 67 69 73 76 81 86 91 91 85 84 83 81 84 88 91 95 100 100 102 109 115 111 111 99 92 89 90 87 85 81 83 84 88 93 96 95 95 98
75 71 68 71 65 71 77 80 82 83 87 90 92 93 95 96 98 96 92 98 96 97 104 107 111 114 117 101 95 91 84 80 79 78 78 79 82 88 93 100 102 100 101
76 81 82 80 82 80 83 86 89 89 88 92 95 93 97 102 104 99 103 106 112 114 115 114 114 114 110 107 94 88 85 83 81 81 80 77 81 88 93 98 103 107 104
80 77 80 82 85 85 85 84 91 97 99 100 100 99 101 101 103 108 110 113 114 117 121 113 110 104 104 92 91 91 89 87 85 82 78 73 74 80 91 98 103 109 111
89 93 86 86 89 89 89 92 93 94 98 99 99 102 106 108 113 114 113 119 120 116 111 112 103 102 95 88 90 91 91 88 83 78 75 72 74 77 86 95 104 109 112
95 96 94 94 100 103 103 108 104 100 100 100 103 107 113 113 114 117 119 116 111 116 105 96 90 88 88 86 86 89 90 82 75 71 67 66 68 75 81 90 100 105 108
98 95 94 109 108 112 112 115 117 113 111 110 110 116 114 116 119 117 117 112 100 96 88 88 86 88 84 84 86 88 84 76 71 68 62 59 62 67 76 81 88 94 101
101 111 109 112 119 120 117 118 117 117 120 118 119 114 119 118 119 122 104 96 92 90 90 86 87 85 83 82 84 85 79 72 66 63 61 55 56 61 68 73 80 86 87
116 121 123 124 123 126 123 121 121 123 124 124 122 118 119 119 106 100 92 90 88 88 89 86 85 83 83 83 81 76 71 67 62 60 63 55 52 55 61 66 73 79 83
124 124 126 126 127 129 128 126 128 127 125 123 123 123 112 101 96 94 88 86 88 86 87 85 82 79 76 74 73 69 64 61 59 57 58 57 51 52 57 61 66 73 78
125 127 126 129 128 128 128 127 127 125 123 119 112 104 96 91 89 87 86 83 82 82 81 80 74 67 69 69 64 60 59 55 54 53 54 54 53 49 53 58 62 66 72
128 129 129 124 124 118 118 120 116 114 111 110 105 102 94 89 86 84 84 81 79 79 76 70 65 65 64 61 58 57 54 50 49 49 52 50 50 50 48 52 58 63 67
110 108 109 108 107 106 105 105 105 105 105 102 97 92 90 87 85 82 81 78 77 73 66 61 62 61 59 56 53 53 51 46 44 48 50 49 46 47 47 48 52 58 62
97 96 98 100 102 100 99 100 99 98 97 96 93 89 87 85 81 79 76 73 68 65 62 59 58 56 53 52 49 49 48 45 45 43 44 46 43 44 44 47 48 53 58
87 88 88 90 91 92 92 90 91 93 94 91 91 88 85 81 78 74 70 66 63 61 57 55 53 52 49 47 46 46 44 42 42 37 39 40 39 40 43 44 47 49 53
81 81 82 82 83 86 85 85 84 85 85 85 85 83 81 76 70 69 64 62 59 55 52 51 49 48 44 43 43 44 42 39 37 35 35 36 36 38 40 42 44 46 50
76 75 74 72 74 78 78 75 76 76 77 77 77 75 71 70 69 67 64 61 55 51 49 47 46 45 42 41 40 41 40 37 34 34 32 32 34 35 38 39 42 45 48

GFSMA_250_spd_177.txt.gz
Wind_Speed
30 29 34 33 35 35 34 36 38 36 37 36 35 36 37 37 37 38 40 42 43 44 45 46 47 49 50 52 54 57 58 56 56 53 48 42 44 41 38 32 36 40 41
32 34 35 39 40 39 39 38 41 39 36 36 37 36 36 39 41 43 45 47 46 47 48 51 54 53 55 55 57 58 59 57 57 54 50 46 42 45 43 45 41 38 48
40 38 40 40 39 42 43 40 44 47 50 47 43 41 42 43 44 45 46 48 52 52 53 56 55 54 58 58 58 59 59 58 62 55 52 53 52 50 52 50 54 53 45
52 49 44 42 43 43 42 43 45 50 52 51 47 45 43 44 47 50 50 52 54 56 59 64 62 63 63 61 60 64 65 68 65 63 62 62 57 59 61 63 66 69 55
47 46 49 46 43 47 43 43 46 49 51 49 49 53 53 53 51 51 53 55 61 63 62 64 70 72 72 72 68 70 73 73 73 72 68 62 61 61 66 69 76 76 73
53 53 50 47 50 51 45 45 42 46 47 48 50 52 56 58 60 61 62 64 68 70 70 73 76 79 73 73 76 80 79 79 76 68 66 73 71 73 71 71 73 77 78
57 55 52 52 50 54 51 57 60 58 48 48 53 57 63 63 64 64 66 68 73 75 74 75 75 75 78 78 79 82 83 84 81 83 82 80 79 78 79 81 82 82 84
58 57 57 54 54 55 59 63 61 65 67 69 73 56 53 61 66 70 72 77 76 75 76 74 79 82 83 84 85 88 87 86 85 84 83 80 84 85 88 88 92 92 92
59 60 61 59 61 62 62 64 62 67 69 71 75 76 71 62 62 63 66 72 74 77 77 79 82 85 87 88 87 88 90 91 92 91 96 100 100 98 100 100 98 100 96
66 66 64 64 69 74 71 69 75 77 75 76 78 82 85 88 85 74 73 74 76 74 76 79 82 82 86 89 90 89 85 91 95 97 100 100 104 105 110 106 106 106 103
69 71 69 74 84 76 79 84 79 78 76 82 87 87 86 85 87 93 83 83 83 94 87 82 85 90 89 91 94 98 101 102 107 106 106 110 111 112 112 109 105 99 90
69 70 72 82 86 86 88 88 91 87 84 85 86 90 93 94 88 95 101 98 90 86 89 92 98 98 108 110 109 113 112 114 119 120 110 109 110 100 99 94 87 80 81
61 82 77 79 84 87 91 91 90 90 99 100 105 86 91 103 100 99 105 104 88 88 90 100 102 112 111 118 115 119 121 125 118 120 118 108 103 99 92 89 83 81 81
74 78 83 86 80 90 91 93 96 94 99 106 106 91 101 103 109 113 104 97 101 98 103 108 122 117 119 126 124 125 125 130 134 116 103 94 91 88 86 88 86 85 85
69 77 86 88 93 98 96 102 107 113 104 108 103 98 100 105 113 114 113 106 108 107 112 120 128 128 131 130 131 129 133 135 111 103 101 93 90 87 85 86 87 86 88
81 85 87 96 104 103 114 115 109 116 119 113 112 102 106 114 112 114 110 110 118 124 125 130 136 137 133 132 132 139 124 109 99 96 95 89 86 87 88 87 84 83 83
80 86 101 112 110 104 98 107 112 116 120 120 119 109 114 118 114 116 115 125 129 129 132 138 141 137 141 137 137 120 110 100 95 93 93 91 91 88 86 84 77 73 74
97 94 99 111 108 97 102 110 117 126 121 117 112 122 119 128 127 129 130 133 134 136 141 142 143 149 144 138 125 114 101 97 89 90 90 90 88 86 83 77 71 65 69
100 99 97 98 113 113 108 116 118 122 123 118 127 128 127 130 132 135 134 139 140 142 146 147 147 144 133 128 110 102 95 90 87 86 84 84 84 81 75 66 61 61 62
108 109 113 110 115 113 121 116 124 126 128 135 136 131 133 137 139 141 143 145 147 148 145 142 146 129 113 103 98 93 89 85 83 81 82 80 77 71 66 62 58 59 57
122 122 124 126 127 129 132 138 128 134 142 148 150 153 138 132 130 132 135 140 140 139 136 130 118 108 100 96 91 86 81 79 77 78 77 74 68 65 61 56 52 55 54
113 111 114 114 116 114 112 112 115 121 138 140 132 123 120 120 121 125 122 123 124 118 111 106 100 96 90 88 84 79 75 72 71 71 70 66 61 58 54 49 50 52 51
103 102 100 100 98 97 98 99 99 100 103 105 104 102 104 104 105 106 105 103 101 98 95 91 88 85 80 75 71 69 67 67 66 65 63 58 55 52 49 47 47 48 49
97 94 91 92 91 92 90 90 91 91 91 91 91 89 91 91 91 93 93 92 90 86 83 81 76 70 66 64 64 63 62 62 62 61 56 53 51 48 45 45 45 44 44
92 87 85 80 78 81 83 81 80 80 81 83 82 81 82 81 80 79 77 77 77 72 69 66 63 60 60 59 59 58 57 57 56 54 51 49 47 43 43 42 40 39 39
71 71 71 67 69 68 67 69 70 71 73 75 69 68 69 68 68 67 64 62 62 60 60 58 56 57 57 55 55 54 54 53 51 50 47 45 43 40 39 37 34 35 37

GFSMA_250_spd_180.txt.gz
Wind_Speed
39 41 38 35 31 31 36 42 41 42 40 41 37 42 44 43 43 43 38 39 40 38 39 42 43 43 42 44 48 49 47 49 51 52 54 57 58 54 53 51 42 42 41
34 38 39 41 43 39 35 39 45 43 44 44 42 45 48 47 47 47 49 48 44 42 43 42 42 45 44 45 50 49 53 51 51 51 50 56 58 56 56 52 48 45 43
35 38 39 43 43 40 42 42 40 44 46 44 47 45 46 51 50 48 47 43 44 47 49 48 50 52 47 52 54 58 61 59 60 61 61 63 63 62 62 58 58 54 54
39 37 39 43 40 42 42 41 45 46 48 46 45 45 46 49 49 48 49 54 52 51 54 51 49 48 52 57 61 63 65 68 71 72 74 71 68 68 70 69 63 59 56
42 42 41 41 45 48 48 46 47 46 49 46 47 52 51 45 46 48 52 53 53 53 57 58 61 60 64 67 69 70 72 73 72 71 70 70 73 72 71 70 65 59 56
43 45 43 49 50 53 51 47 48 49 51 48 52 57 59 58 60 62 58 54 59 61 63 64 64 63 65 66 67 69 68 68 70 72 74 75 74 76 77 76 73 70 71
46 44 51 53 54 53 52 51 51 51 49 51 53 57 58 60 64 69 71 63 53 61 58 59 63 73 75 75 76 72 70 73 76 78 80 81 78 74 77 76 73 77 76
47 49 55 59 57 57 57 56 58 54 58 60 62 62 64 64 67 66 71 75 76 73 75 76 77 75 67 68 69 69 72 77 80 77 79 81 78 78 78 80 76 80 82
51 58 60 58 59 54 58 62 62 62 57 60 68 72 76 72 73 75 80 74 74 76 82 83 83 84 82 81 80 80 77 84 79 77 79 82 83 84 85 86 88 87 91
62 55 60 54 62 59 57 64 62 64 68 66 72 83 85 82 87 91 89 81 82 82 86 83 91 96 92 93 88 91 86 92 90 89 84 85 93 96 96 103 99 104 100
64 64 70 68 63 63 65 64 77 76 67 78 86 90 86 87 85 93 95 98 92 89 91 98 83 94 96 104 103 103 96 93 89 92 99 102 106 110 117 112 103 110 116
64 67 65 73 66 71 80 79 76 74 69 77 91 96 91 84 88 94 99 98 95 100 104 93 93 99 99 102 101 103 103 94 93 96 104 113 117 119 122 115 127 116 99
70 64 61 83 72 82 80 78 71 67 86 94 92 94 99 91 95 96 94 99 101 109 112 102 102 102 105 102 104 103 101 103 99 106 117 120 118 126 129 132 129 117 101
80 82 71 67 77 78 75 80 84 96 91 96 92 100 96 104 98 99 106 114 116 110 111 113 111 111 108 102 107 107 105 108 111 115 121 126 130 132 132 127 117 101 92
67 89 80 84 85 76 79 83 90 95 102 101 107 102 105 108 111 109 107 113 116 112 112 111 115 110 108 114 109 106 115 118 120 125 135 133 135 135 132 133 105 94 91
89 89 82 88 95 83 94 93 94 93 103 108 114 112 116 122 116 114 116 122 117 118 115 114 122 125 119 114 116 118 124 123 127 136 136 134 141 135 133 110 96 91 88
94 94 91 87 92 86 93 105 105 110 116 116 112 117 118 123 123 122 123 123 119 117 118 122 122 123 121 121 131 133 131 135 137 142 143 137 139 127 104 98 93 91 91
102 99 92 91 95 103 108 109 109 112 119 118 119 116 120 117 115 123 124 125 125 127 128 129 131 123 124 136 137 136 140 145 150 141 137 131 124 108 102 96 94 93 91
103 100 104 101 102 108 116 116 115 117 123 119 125 129 129 128 129 134 127 124 127 131 134 135 139 138 141 143 147 145 151 153 134 131 127 118 110 102 96 93 91 89 84
108 109 109 111 113 114 116 119 123 124 124 132 130 131 134 130 127 122 129 134 134 137 138 138 141 147 148 148 147 152 152 131 125 118 113 104 99 94 91 89 88 83 77
101 106 109 117 121 119 120 126 127 129 132 136 137 133 133 132 133 137 138 140 147 140 143 148 152 149 155 158 155 148 127 117 112 107 99 94 93 90 87 83 82 75 70
109 114 118 115 118 119 116 115 117 120 125 121 123 128 133 128 129 131 135 139 143 143 139 138 143 140 128 122 116 110 106 101 97 90 88 88 86 85 80 75 73 68 65
111 112 111 110 109 107 104 101 95 95 98 98 100 102 105 107 107 106 107 110 109 111 113 112 111 110 106 99 94 92 91 87 85 83 82 81 79 74 71 67 65 62 58
104 100 98 94 94 99 95 91 87 84 83 85 87 90 92 93 90 87 87 88 90 90 91 91 91 89 86 83 81 79 78 78 77 75 75 74 70 68 64 58 57 56 53
97 94 92 82 82 81 81 79 78 77 78 78 80 81 79 77 76 76 76 76 75 75 75 77 76 75 75 75 73 72 71 71 71 70 69 67 64 61 57 54 53 51 50
100 83 72 63 67 68 66 66 67 69 71 71 72 74 74 71 67 68 67 69 66 64 64 64 64 64 65 65 64 64 64 65 65 64 63 61 58 55 51 49 47 47 47